Location: Aberffraw
(53.1833°N, 4.4500°W)
Time: 08:42:09
(UTC+00:00)

Daily predictions for brighter satellites

Satellite Brightness Start Highest point End
(mag) Time Altitude Azimuth Time Altitude Azimuth Time Altitude Azimuth
Cosmos 1340 3.3 17:21:14 10° N 17:24:43 33° ENE 17:28:10 10° SE
Meteor 2-14 Rocket 4.5 17:19:35 10° N 17:25:47 80° ENE 17:31:54 10° SSE
Cosmos 1703 4.2 17:22:38 10° NNW 17:26:31 54° W 17:30:22 10° S
Cosmos 44 3.7 17:23:32 10° SSW 17:27:48 41° ESE 17:32:21 10° NE
NOAA 11 4.3 17:23:10 10° SE 17:28:27 55° ENE 17:33:46 10° N
CZ-2D R/B 4.4 17:26:04 10° ESE 17:29:06 23° ENE 17:32:08 10° N
Radarsat Rocket 4.3 17:24:13 10° SSE 17:30:09 73° WSW 17:36:01 10° NNW
Cosmos 2228 3.2 17:26:04 10° S 17:30:12 51° E 17:34:23 10° NNE
Okean O Rocket 1.6 17:25:51 10° SSE 17:30:14 84° ENE 17:34:36 10° NNW
Cosmos 1726 Rocket 4.0 17:27:00 10° SSE 17:31:06 41° E 17:35:14 10° NNE
CZ-4 R/B 2.6 17:29:07 10° ESE 17:31:58 20° ENE 17:34:50 10° NNE
Cosmos 1758 Rocket 3.9 17:27:53 10° NNW 17:32:18 72° W 17:36:38 10° S
Cosmos 1346 Rocket 3.9 17:29:05 10° N 17:32:23 24° ENE 17:35:40 10° ESE
SL-4 R/B 1.8 17:28:58 10° W 17:32:26 69° S 17:36:08 10° E
Cosmos 2058 4.0 17:29:55 10° NNE 17:33:12 23° ENE 17:36:29 10° ESE
Cosmos 2297 Rocket 2.2 17:30:17 10° NNW 17:36:00 78° ENE 17:41:40 10° SE
Cosmos 2369 Rocket 3.6 17:31:33 10° WSW 17:36:44 34° NW 17:41:57 10° NNE
Aureole 3 3.9 17:34:25 10° SE 17:36:46 21° E 17:39:08 10° NE
CORIOLIS 4.2 17:32:10 10° SSE 17:37:31 85° ENE 17:42:56 10° NNW
Timation 2 Rocket 4.5 17:30:59 10° NW 17:37:32 75° WSW 17:44:19 10° SSE
In-Cosmos 22 Rocket 4.3 17:32:46 10° N 17:37:59 49° ENE 17:43:16 10° SE
Cosmos 1356 Rocket 4.4 17:34:14 10° SSW 17:38:27 54° WNW 17:42:42 10° N
Cosmos 1452 Rocket 4.1 17:35:08 10° SW 17:40:21 60° WNW 17:45:36 10° NNE
Cosmos 1953 3.9 17:37:59 10° SW 17:41:41 37° WNW 17:45:25 10° N
CZ-2C R/B 3.9 17:40:48 10° ESE 17:45:51 33° ENE 17:50:44 10° N
Cosmos 1606 Rocket 3.5 17:43:08 10° S 17:47:30 71° E 17:51:56 10° NNE
Cosmos 1315 Rocket 4.4 17:45:13 10° ESE 17:47:33 15° E 17:49:56 10° NE
YAOGAN 6 3.9 17:47:32 10° S 17:51:05 46° W 17:54:41 10° NNW
Cosmos 1553 Rocket 4.4 17:45:49 10° SSE 17:51:38 40° E 17:57:22 10° NNE
BREEZE-M R/B 3.6 17:49:31 10° WSW 17:52:51 57° S 17:59:00 11° ESE
USA 305 3.2 17:49:13 10° WNW 17:53:31 66° SSW 17:57:46 10° ESE
SKYMED 2 4.3 17:50:56 10° NNE 17:54:51 32° E 17:58:45 10° SSE
CZ-4C R/B 4.4 17:53:41 10° N 17:56:45 38° WNW 17:59:53 10° SW
Meteor 2-10 Rocket 4.3 17:52:56 10° SSE 17:57:19 28° E 18:01:37 10° NNE
NOSS 3-4 (A) 4.0 17:52:26 10° NW 17:58:55 52° NNE 18:05:39 12° ESE
NOSS 3-4 (C) 4.0 17:52:32 10° NW 17:59:01 52° NNE 18:05:43 12° ESE
Cosmos 1455 3.5 17:56:39 10° SE 17:59:22 19° E 18:02:06 10° NE
Cosmos 292 Rocket 3.7 17:54:38 10° SSW 17:59:25 75° ESE 18:04:17 10° NNE
USA 306 3.3 17:55:45 10° WNW 18:00:00 62° SSW 18:04:13 10° ESE
FengYun 1-2 T 4.4 17:54:22 10° SSE 18:00:02 84° WSW 18:05:43 10° NNW
Cosmos 1943 Rocket 4.2 17:58:59 10° WNW 18:03:04 21° NNW 18:07:10 10° NNE
SeaSat 1 3.4 18:00:38 14° E 18:04:02 29° NE 18:08:14 10° NNW
FALCON 9 DEB 3.6 18:03:04 10° SW 18:06:09 42° SSE 18:07:57 21° E
H-2A R/B 2.8 18:01:26 10° SE 18:06:16 34° ENE 18:11:09 10° N
SL-08 R/B 4.4 18:01:04 10° N 18:07:15 69° ENE 18:13:20 10° SSE
Okean-O 2.8 18:03:12 10° SE 18:07:27 48° ENE 18:11:44 10° N
FALCON 9 DEB 3.5 18:04:59 10° SW 18:08:04 44° SSE 18:09:47 22° E
SMAP 4.3 18:04:46 10° S 18:09:14 45° W 18:13:44 10° NNW
Cosmos 2219 3.8 18:03:51 10° NW 18:09:33 64° WSW 18:15:14 10° SSE
Cosmos 1331 Rocket 4.2 18:07:29 10° SSW 18:12:38 74° WNW 18:17:49 10° NNE
Aureole 3 Rocket 3.5 18:08:27 10° S 18:12:49 66° E 18:19:02 10° NNE
ATLAS 5 CENTAUR R/B 3.2 18:09:28 10° WNW 18:13:27 28° N 18:17:34 12° NE
Cosmos 1745 Rocket 4.1 18:07:28 10° N 18:13:42 58° ENE 18:19:57 10° SSE
Cosmos 1953 Rocket 4.5 18:10:38 10° NNW 18:14:57 53° W 18:19:16 10° S
USA 215 3.4 18:10:10 16° E 18:15:31 65° N 18:21:59 10° WNW
COSMOS 2455 4.4 18:11:12 10° NW 18:15:49 22° N 18:19:43 12° NE
Lacrosse 5 2.2 18:11:51 10° WNW 18:16:51 56° N 18:20:11 20° ENE
Cosmos 2082 3.7 18:11:05 10° NNW 18:16:52 77° ENE 18:22:36 10° SE
Cosmos 1408 2.7 18:13:30 10° N 18:17:05 49° ENE 18:20:39 10° SSE
ATLAS 2AS CENTAUR R/B 3.1 18:13:25 10° NW 18:21:00 55° NNE 18:26:17 19° E
Cosmos 2278 Rocket 4.3 18:18:46 10° NNW 18:21:15 13° N 18:23:45 10° NNE
GEOS 3 Rocket 3.8 18:17:20 15° ESE 18:21:40 59° NE 18:26:59 10° NW
ARGOS 3.8 18:17:21 10° SE 18:22:08 35° ENE 18:27:01 10° N
Cosmos 968 Rocket 3.7 18:17:01 10° NNW 18:22:16 77° WSW 18:27:26 10° SSE
ERBS 2.9 18:19:06 10° WNW 18:22:19 43° N 18:23:42 27° ENE
FALCON 9 DEB 3.3 18:19:37 10° SW 18:22:47 51° SSE 18:24:00 31° E
HJ-1C 4.4 18:23:12 26° ENE 18:23:13 26° ENE 18:26:06 10° N
Cosmos 1689 Rocket 2.2 18:21:51 17° NNE 18:23:47 46° E 18:26:35 10° S
Cosmos 1656 3.7 18:18:58 10° SSW 18:24:26 60° ESE 18:30:01 10° NE
Cosmos 2058 Rocket 3.1 18:20:59 10° S 18:25:30 86° E 18:30:04 10° NNE
Cosmos 1844 Rocket 4.3 18:25:53 10° NNW 18:29:45 18° NNE 18:31:40 16° NE
Cosmos 1076 Rocket 3.5 18:27:14 10° N 18:31:26 56° ENE 18:35:38 10° SSE
FALCON 9 DEB 3.4 18:28:04 10° W 18:31:28 62° SSW 18:32:59 29° SE
FALCON 9 DEB 3.1 18:29:06 10° WSW 18:32:16 58° SSE 18:33:08 40° ESE
Cosmos 1892 2.9 18:29:52 10° NNW 18:33:46 75° W 18:37:38 10° S
SJ 16-02 3.2 18:31:23 10° N 18:33:43 15° NE 18:33:43 15° NE
ADEOS Rocket 4.3 18:29:46 10° N 18:35:46 47° WNW 18:42:23 10° SW
Cosmos 2369 4.2 18:30:40 10° S 18:35:52 37° ESE 18:39:11 20° NE
Cosmos 1777 Rocket 4.4 18:31:19 10° NNW 18:36:16 41° NE 18:38:35 26° ESE
IRS-1C Rocket 4.5 18:33:02 10° S 18:38:16 67° WSW 18:43:34 10° NNW
Cosmos 1939 Rocket 3.4 18:34:32 10° S 18:38:26 58° W 18:42:17 10° NNW
Cosmos 2227 Rocket 3.2 18:35:00 10° NW 18:40:26 49° WSW 18:45:51 10° S
H-2A R/B 4.1 18:37:19 10° N 18:40:50 27° WNW 18:44:18 10° WSW
SAR-Lupe-4 3.7 18:38:22 10° NNE 18:41:58 75° WNW 18:45:32 10° SSW
SL-08 ROCKET BODY 4.5 18:36:03 10° NNW 18:42:11 84° W 18:48:22 10° S
Cosmos 2263 Rocket 2.6 18:37:15 10° NNW 18:42:42 44° NE 18:45:07 29° E
COSMO-SKYMED 1 2.5 18:38:43 10° NNE 18:43:07 85° ESE 18:47:28 10° SSW
Cosmos 1709 Rocket 4.1 18:36:54 10° N 18:43:12 57° ENE 18:49:28 10° SSE
CSL-04 Rocket 3.7 18:37:57 10° SSE 18:43:24 61° ENE 18:48:50 10° N
USA 307 4.0 18:39:35 10° WNW 18:43:37 40° SSW 18:46:28 17° SSE
CZ-4B R/B 2.8 18:41:45 10° N 18:44:47 37° WNW 18:47:43 10° SW
Cosmos 1302 Rocket 4.2 18:40:03 10° SSW 18:45:19 74° WNW 18:50:39 10° NNE
CZ-4C R/B 3.2 18:39:25 10° NW 18:45:45 48° NNE 18:49:38 27° E
Cosmos 1300 4.4 18:43:59 10° SW 18:47:30 34° WNW 18:51:02 10° N
USA 308 4.1 18:44:34 10° W 18:48:34 38° SSW 18:51:15 18° SSE
Cosmos 1825 2.0 18:45:29 10° N 18:49:18 74° ENE 18:52:23 15° SSE
Cosmos 1400 Rocket 3.6 18:45:46 10° SSW 18:49:48 55° WNW 18:53:49 10° N
ERS-2 3.6 18:46:31 10° N 18:49:54 37° WNW 18:53:17 10° SW
Helios 1A Rocket 3.6 18:52:00 10° S 18:56:03 55° WSW 19:00:06 10° NNW
Cosmos 1697 Rocket 2.7 18:52:22 10° SSW 18:57:52 59° ESE 19:01:26 22° NE
YAOGAN 1 2.7 18:54:58 10° S 18:59:18 75° WSW 19:03:40 10° NNW
Cosmos 883 Rocket 4.4 18:55:26 10° S 19:01:24 56° E 19:07:22 10° NNE
Cosmos 1503 Rocket 4.5 18:57:17 10° NNW 19:02:26 61° WSW 19:07:36 10° S
CZ-2D R/B 4.5 18:59:38 10° S 19:03:15 42° W 19:06:55 10° NNW
Cosmos 1766 Rocket 4.5 19:00:24 10° N 19:03:30 32° NE 19:03:30 32° NE
Cosmos 1812 Rocket 3.4 19:01:45 10° S 19:06:07 69° E 19:10:28 10° NNE
CZ-4 R/B 2.1 19:02:57 10° S 19:06:44 51° W 19:10:30 10° NNW
Okean 3 Rocket 4.3 19:03:45 10° N 19:06:51 35° NE 19:06:51 35° NE
S3M 3.9 19:02:10 10° S 19:08:19 89° WNW 19:14:34 10° N
Cosmos 1346 Rocket 4.1 19:05:09 10° NNW 19:08:55 41° W 19:12:40 10° SSW
DMSP B5D1-3 4.5 19:03:52 10° NNE 19:08:59 61° ESE 19:14:04 10° S
Cosmos 44 4.1 19:04:32 10° WSW 19:09:02 47° NW 19:11:51 22° NNE
Resurs 01 Rocket 4.0 19:11:38 11° NNE 19:11:38 11° NNE 19:11:58 10° NNE
Cosmos 2058 4.0 19:06:25 10° NNW 19:10:20 45° W 19:14:15 10° SSW
SL-4 R/B 2.6 19:08:23 10° W 19:11:47 40° SSW 19:12:08 39° S
Meteor 2-1 Rocket 4.1 19:06:28 10° S 19:11:59 90° SW 19:17:35 10° NNE
Cosmos 2315 Rocket 4.0 19:06:12 10° SSE 19:12:13 56° E 19:18:16 10° NNE
Cosmos 2151 2.8 19:09:38 10° N 19:13:52 74° ENE 19:14:07 71° ESE
PSLV R/B 4.5 19:10:12 10° N 19:14:20 59° WNW 19:18:24 10° SSW
SJ-11-01 4.4 19:14:32 10° S 19:19:11 74° WSW 19:23:55 10° NNW
Cosmos 1980 Rocket 2.3 19:16:07 10° S 19:21:13 50° SE 19:21:13 50° SE
MetOp-A 4.3 19:21:44 48° ENE 19:21:44 48° ENE 19:26:47 10° N
Cosmos 1992 Rocket 3.9 19:16:30 10° SSW 19:21:43 84° WNW 19:25:34 19° NNE
Cosmos 1315 Rocket 3.1 19:19:39 10° SSW 19:23:37 65° WNW 19:27:26 11° N
CZ-2C R/B 3.9 19:19:52 10° S 19:25:31 55° W 19:30:59 10° NNW
Cosmos 220 Rocket 4.5 19:26:25 10° SW 19:30:45 61° WNW 19:32:33 33° N
Geosat 4.3 19:33:07 49° SSE 19:33:07 49° SSE 19:37:01 10° SSW
Ariane Rocket 3.1 19:33:54 59° NE 19:33:54 59° NE 19:38:30 10° N
Cosmos 1455 3.2 19:31:01 10° SSW 19:34:40 45° WNW 19:38:23 10° N
Cosmos 2227 4.1 19:31:53 10° NNW 19:37:34 89° WSW 19:38:36 61° SSE
Meteor 2-10 Rocket 4.3 19:34:05 10° SSW 19:39:09 50° WNW 19:44:07 10° N
SeaSat 1 2.5 19:40:26 61° S 19:41:13 74° WSW 19:46:11 10° NW
Cosmos 2360 4.1 19:39:21 10° SSW 19:45:05 87° WNW 19:46:40 50° NNE
H-2A R/B 2.9 19:40:16 10° S 19:45:32 51° W 19:50:53 10° NNW
MOS 1 Rocket 3.5 19:41:07 10° N 19:45:47 71° WNW 19:50:43 10° SSW
NOSS 3-4 (A) 4.1 19:43:22 10° NW 19:50:10 65° SW 19:53:07 38° SSE
NOSS 3-4 (C) 4.0 19:43:29 10° NW 19:50:17 65° SW 19:53:11 39° SSE
IRS-1A Rocket 4.1 19:53:43 87° E 19:53:45 87° ENE 19:59:18 10° NNW
Cosmos 2278 3.6 19:49:30 10° SSW 19:54:44 76° SSW 19:54:44 76° SSW
MOS 1 4.2 19:57:23 82° NNE 19:57:23 82° NNE 20:02:54 10° NNW
USA 215 3.1 19:57:31 70° ESE 19:58:25 88° NNE 20:05:00 10° WNW
ATLAS 5 CENTAUR R/B 3.3 19:55:04 10° NW 19:59:05 29° N 19:59:05 29° N
Lacrosse 5 2.2 19:55:05 10° WNW 19:59:23 64° WNW 19:59:23 64° WNW
Cosmos 44 Rocket 4.3 19:55:45 10° SW 19:58:43 39° SW 19:58:43 39° SW
Meteor 2-3 Rocket 3.8 19:55:21 10° NNW 20:01:04 74° W 20:01:56 63° SSW
ARGOS 4.0 19:58:52 21° SSW 20:02:16 49° W 20:07:34 10° NNW
NOSS 3-3 (A) 4.0 19:56:15 10° SW 20:02:18 78° NW 20:03:38 58° NNE
NOSS 3-3 (C) 4.0 19:56:22 10° SW 20:02:24 79° NW 20:03:42 59° NNE
COSMOS 2455 3.8 19:57:56 10° NW 20:02:51 35° NNE 20:02:51 35° NNE
SL-08 RB Rocket 4.5 20:04:20 49° WNW 20:04:20 49° WNW 20:08:03 10° NNW
Cosmos 2278 Rocket 4.0 20:03:40 10° NNW 20:06:48 19° NNE 20:06:48 19° NNE
ATLAS 2AS CENTAUR R/B 3.1 20:04:48 10° NW 20:12:14 61° SW 20:13:44 51° S
SJ 16-02 3.3 20:08:58 10° NNW 20:10:43 23° NNW 20:10:43 23° NNW
Cosmos 1844 Rocket 3.7 20:09:31 10° NNW 20:13:19 37° N 20:13:19 37° N
Cosmos 2369 4.4 20:14:22 10° SW 20:19:56 51° NW 20:21:11 44° N
Cosmos 2184 Rocket 4.1 20:19:13 10° NNW 20:25:12 74° WNW 20:25:12 74° WNW
Cosmos 2263 Rocket 3.0 20:21:18 10° NW 20:26:42 45° WSW 20:26:50 45° WSW
CZ-4C R/B 2.9 20:27:56 10° NW 20:34:50 77° SW 20:34:50 77° SW
Cosmos 1697 Rocket 4.0 20:37:01 10° WSW 20:42:10 35° NW 20:43:12 33° NNW
Cosmos 2074 Rocket 4.5 20:37:10 10° NNW 20:42:48 55° WNW 20:42:48 55° WNW
Resurs 01 Rocket 4.4 20:49:12 12° NNW 20:49:12 12° NNW 20:49:33 10° NNW
Cosmos 1980 Rocket 4.0 21:00:27 10° WSW 21:03:04 25° W 21:03:04 25° W
ATLAS CENTAUR R/B 4.5 21:25:43 10° WNW 21:48:06 81° N 21:48:06 81° N
